PST,Max TemperatureF,Mean TemperatureF,Min TemperatureF,Max Dew PointF,MeanDew PointF,Min DewpointF,Max Humidity, Mean Humidity, Min Humidity, Max Sea Level PressureIn, Mean Sea Level PressureIn, Min Sea Level PressureIn, Max VisibilityMiles, Mean VisibilityMiles, Min VisibilityMiles, Max Wind SpeedMPH, Mean Wind SpeedMPH, Max Gust SpeedMPH,PrecipitationIn, CloudCover, Events, WindDirDegrees
2012-12-1,49,44,38,40,36,32,89,72,54,29.76,29.62,29.33,10,10,5,35,10,48,0.28,7,Rain,184
2012-12-2,47,42,36,40,32,25,92,67,42,29.95,29.61,29.27,10,10,7,20,11,26,0.35,4,Rain,206
2012-12-3,48,43,37,35,30,28,76,63,49,30.07,30.00,29.83,10,10,10,25,12,38,T,3,Rain,180
2012-12-4,52,46,40,41,39,36,83,74,65,29.90,29.84,29.74,10,10,10,28,18,35,0.08,7,Rain,188
2012-12-5,49,38,26,41,32,24,92,71,50,30.21,30.09,29.91,10,10,10,15,5,17,T,4,Rain,356
2012-12-6,40,32,23,29,25,22,100,77,54,30.23,30.19,30.14,10,10,10,10,3,12,0.00,1,,183
2012-12-7,46,35,24,28,26,22,85,67,49,30.19,30.11,30.01,10,10,10,30,9,37,0.00,2,,255
2012-12-8,41,35,29,27,25,20,78,63,48,30.30,30.20,30.11,10,10,10,17,4,22,0.00,6,,297
2012-12-9,45,36,26,32,29,25,92,75,57,30.41,30.35,30.29,10,10,10,12,3,13,T,6,,126
2012-12-10,54,43,31,36,30,25,89,65,41,30.39,30.30,30.13,10,10,10,13,4,17,0.00,0,,199
2012-12-11,51,39,27,31,26,18,92,60,27,30.09,29.75,29.60,10,10,10,25,8,36,T,4,,196
2012-12-12,41,32,22,31,24,20,96,70,44,29.99,29.81,29.63,10,10,10,14,3,17,0.00,4,,211
2012-12-13,40,27,14,27,21,14,96,72,48,30.06,29.95,29.81,10,10,10,9,4,12,0.00,1,,160
2012-12-14,36,28,19,31,24,15,92,81,69,29.99,29.84,29.76,10,7,0,14,3,16,0.01,5,Fog-Snow,111
2012-12-15,35,25,14,31,24,12,96,80,63,29.98,29.76,29.60,10,7,2,17,5,23,0.02,6,Snow,162
2012-12-16,44,30,16,36,28,16,100,84,67,29.85,29.59,29.28,10,10,6,26,11,39,0.44,5,Rain,167
2012-12-17,40,31,21,34,28,16,96,80,63,29.98,29.68,29.30,10,8,0,35,12,44,0.10,6,Fog-Rain-Snow,236
2012-12-18,34,24,13,20,16,11,92,71,49,30.09,30.02,29.96,10,10,10,15,4,21,0.00,2,,180
2012-12-19,37,28,18,21,18,14,84,66,48,30.07,29.96,29.81,10,10,10,23,12,31,0.00,4,,155
2012-12-20,41,36,31,30,24,16,100,70,40,29.83,29.76,29.69,10,9,2,32,12,43,T,4,Snow,173
2012-12-21,42,36,30,34,30,27,92,76,60,29.81,29.75,29.68,10,10,8,13,3,17,T,6,Rain,172
2012-12-22,42,38,33,31,26,22,82,66,49,29.81,29.65,29.54,10,10,10,23,11,35,0.00,2,,186
2012-12-23,36,33,30,34,27,21,96,79,61,29.91,29.67,29.48,10,6,0,16,8,23,0.29,5,Fog-Snow,147
2012-12-24,37,26,14,27,21,12,92,78,64,30.20,30.11,29.92,10,10,10,10,4,13,0.00,0,,147
2012-12-25,40,34,27,29,25,19,85,74,63,30.06,29.82,29.69,10,7,1,18,7,22,0.03,8,Snow,129
2012-12-26,37,31,24,30,28,23,100,91,82,30.01,29.80,29.66,10,5,1,8,2,8,T,7,Snow,308
2012-12-27,38,25,11,26,18,8,100,80,59,30.23,30.15,30.01,10,10,10,8,2,9,0.00,1,,95
2012-12-28,32,22,12,19,16,10,92,73,54,30.21,30.17,30.12,10,10,10,12,3,15,0.00,2,,113
2012-12-29,32,22,12,25,19,10,96,80,63,30.23,30.11,30.03,10,5,0,7,1,10,0.07,7,Fog-Snow,330
2012-12-30,28,18,7,23,19,5,100,88,75,30.34,30.25,30.09,10,8,2,15,4,18,0.00,7,,324
2012-12-31,28,14,0,17,10,1,92,75,58,30.49,30.36,30.28,10,10,10,9,3,12,0.00,4,,178